+ View the NASA Portal
+ Center for Near-Earth Object Studies
IMPORTANT:
The SSD Announcement email list is now available. Major changes are coming in the near future, including possible hostname and/or URL changes. To be notified of such changes, subscribe to this email list.
Please visit
this page
for more details.
Don't show this message again
JPL Small-Body Database Browser
Search:
[
help
]
46308 (2001 OZ104)
Classification:
Main-belt Asteroid
SPK-ID:
2046308
[
Ephemeris
|
Orbit Diagram
|
Orbital Elements
|
Mission Design
|
Physical Parameters
|
Discovery Circumstances
|
Close-Approach Data
]
[ show orbit diagram ]
Orbital Elements at Epoch 2458600.5 (2019-Apr-27.0) TDB
Reference:
JPL 18
(heliocentric ecliptic J2000)
Element
Value
Uncertainty (1-sigma)
Units
e
.1110033027018315
4.7543e-08
a
2.9293834678239
1.6491e-08
au
q
2.604212228015303
1.4101e-07
au
i
2.967446162836785
4.2089e-06
deg
node
122.5276748734156
8.9023e-05
deg
peri
229.2738411577723
9.0832e-05
deg
M
202.4889187376737
1.9761e-05
deg
t
p
2459401.756154338166
(2021-Jul-06.25615434)
0.00010323
TDB
period
1831.313792337811
5.01
1.5464e-05
4.234e-08
d
yr
n
.1965801827661837
1.66e-09
deg/d
Q
3.254554707632496
1.8322e-08
au
Orbit Determination Parameters
# obs. used (total)
1304
data-arc span
14592 days (39.95 yr)
first obs. used
1979-05-19
last obs. used
2019-05-01
planetary ephem.
DE431
SB-pert. ephem.
SB431-N16
condition code
0
norm. resid. RMS
.57418
source
ORB
producer
Otto Matic
solution date
2019-Jul-13 02:37:01
Additional Information
Earth MOID
= 1.59872 au
Jupiter MOID
= 2.15312 au
T_jup
= 3.266
[ show covariance matrix ]
[
Ephemeris
|
Orbit Diagram
|
Orbital Elements
|
Mission Design
|
Physical Parameters
|
Discovery Circumstances
|
Close-Approach Data
]
Physical Parameter Table
Parameter
Symbol
Value
Units
Sigma
Reference
Notes
absolute magnitude
H
14.0
n/a
MPO439409
46308 (2001 OZ104)
Discovered 2001-Jul-28 by LONEOS at Anderson Mesa
Reference:
20020822/Numbers.arc
Last Updated:
2004-04-19
[ hide close-approach data ]
Close-Approach Data
...sorted by
Date/Time (TDB)
Date/Time (TDB)
Time Uncertainty
(days_HH:MM)
Body
Nominal Distance (au)
Minimum Distance (au)
Maximum Distance (au)
V-relative (km/s)
V-infinity (km/s)
JD (TDB)
Time Uncertainty (minutes)
Semi-major axis (km)
Semi-minor axis (km)
range-LOV angle (deg)
N-sigma
BP
Orbit Ref.
Reference
Modified
2002-Oct-29 19:34
< 00:01
Inter
0.0406208231358911
0.0406196569868865
0.0406219893185181
6.00298030924039
6.00298024920559
2452577.315409980
0.49917969830123
86.3067504338913
23.6954835219913
50.2378993249311
202131.71716899
T
18
CATAB v2.0e-lin.ifort 2019-Jul-13 02:37:07
2019-Jul-13 02:37
Alternate Designations
2001 OZ104
= 1981 UE17
[
Ephemeris
|
Orbit Diagram
|
Orbital Elements
|
Mission Design
|
Physical Parameters
|
Discovery Circumstances
|
Close-Approach Data
]
2019-Dec-14 16:27 UT
(server date/time)
Site Manager:
Ryan S. Park
Webmaster
:
Alan B. Chamberlin